Location: St Paul
(33.4390°N, 83.7350°W)
Time: 17:17:08
(UTC-05:00)

Cosmos 864 Rocket - Pass Details

Date: 06 October 2017
Orbit: 952 x 992 km, 82.9° (Epoch: 13 December)

Event Time Altitude Azimuth Distance (km) Brightness Sun altitude
Rises 20:45:56 0° 182° (S) 3,676 7.5 -20.3°
Reaches altitude 10° 20:48:26 10° 182° (S) 2,736 6.8 -20.8°
Maximum altitude 20:54:43 85° 95° (E) 999 4.4 -22.1°
Drops below altitude 10° 21:01:05 10° 7° (N) 2,760 6.9 -23.5°
Sets 21:03:36 0° 7° (N) 3,712 7.6 -24.0°
